When you browse on this site, cookies collect data to enhance your experience and personalize the content and advertising you see.
Visit our Privacy Policy to learn more. By continuing to use the site, you agree to this use of cookies and data.

Meteo pe oră la Dzieraznia

Astăzi, 23 Septembrie, Miercuri

Timp Temperatura Precipitaţii Vânt Presiune Umiditate
00:00 +15°C° 0 mm 2 m/s 739 mmHg 70%
01:00 +15°C° 0 mm 2 m/s 739 mmHg 71%
02:00 +15°C° 0 mm 2 m/s 739 mmHg 72%
03:00 +14°C° 0 mm 2 m/s 739 mmHg 72%
04:00 +14°C° 0 mm 2 m/s 739 mmHg 72%
05:00 +14°C° 0 mm 2 m/s 739 mmHg 71%
06:00 +14°C° 0 mm 3 m/s 739 mmHg 70%
07:00 +16°C° 0 mm 3 m/s 738 mmHg 68%
08:00 +16°C° 0 mm 3 m/s 738 mmHg 66%
09:00 +19°C° 0 mm 3 m/s 738 mmHg 60%
10:00 +21°C° 0 mm 3 m/s 738 mmHg 54%
11:00 +24°C° 0 mm 3 m/s 738 mmHg 49%
12:00 +25°C° 0 mm 3 m/s 738 mmHg 46%
13:00 +26°C° 0 mm 3 m/s 738 mmHg 44%
14:00 +27°C° 0 mm 3 m/s 738 mmHg 41%
15:00 +26°C° 0 mm 3 m/s 737 mmHg 46%
16:00 +26°C° 0 mm 3 m/s 737 mmHg 50%
17:00 +25°C° 0 mm 2 m/s 736 mmHg 55%
18:00 +22°C° 0 mm 3 m/s 736 mmHg 60%
19:00 +20°C° 0 mm 3 m/s 736 mmHg 64%
20:00 +18°C° 0 mm 3 m/s 736 mmHg 68%
21:00 +18°C° 0 mm 3 m/s 736 mmHg 69%
22:00 +18°C° 0 mm 3 m/s 736 mmHg 69%
23:00 +17°C° 0 mm 3 m/s 736 mmHg 69%

Mâine, 24 Septembrie, Joi

Timp Temperatura Precipitaţii Vânt Presiune Umiditate
00:00 +17°C° 0 mm 3 m/s 736 mmHg 68%
01:00 +16°C° 0 mm 3 m/s 736 mmHg 68%
02:00 +16°C° 0 mm 3 m/s 736 mmHg 68%
03:00 +16°C° 0 mm 3 m/s 736 mmHg 67%
04:00 +16°C° 0 mm 3 m/s 735 mmHg 67%
05:00 +14°C° 0 mm 3 m/s 735 mmHg 67%
06:00 +16°C° 0 mm 3 m/s 735 mmHg 67%
07:00 +17°C° 0 mm 3 m/s 735 mmHg 67%
08:00 +17°C° 0 mm 3 m/s 736 mmHg 67%
09:00 +19°C° 0 mm 3 m/s 736 mmHg 63%
10:00 +21°C° 0 mm 3 m/s 736 mmHg 59%
11:00 +24°C° 0 mm 3 m/s 736 mmHg 55%
12:00 +25°C° 0 mm 3 m/s 736 mmHg 53%
13:00 +26°C° 0 mm 3 m/s 736 mmHg 51%
14:00 +27°C° 0 mm 3 m/s 736 mmHg 49%
15:00 +26°C° 0 mm 3 m/s 736 mmHg 52%
16:00 +25°C° 0 mm 2 m/s 736 mmHg 56%
17:00 +25°C° 0 mm 2 m/s 736 mmHg 59%
18:00 +23°C° 0.1 mm 2 m/s 736 mmHg 64%
19:00 +20°C° 0.1 mm 2 m/s 736 mmHg 69%
20:00 +19°C° 0.1 mm 2 m/s 736 mmHg 74%
21:00 +18°C° 0 mm 3 m/s 736 mmHg 77%
22:00 +18°C° 0 mm 3 m/s 736 mmHg 80%
23:00 +17°C° 0 mm 3 m/s 736 mmHg 83%

Poimâine, 25 Septembrie, Vineri

Timp Temperatura Precipitaţii Vânt Presiune Umiditate
00:00 +17°C° 0 mm 3 m/s 736 mmHg 83%
01:00 +16°C° 0 mm 3 m/s 735 mmHg 84%
02:00 +16°C° 0 mm 2 m/s 735 mmHg 85%
03:00 +16°C° 0 mm 2 m/s 735 mmHg 86%
04:00 +15°C° 0 mm 2 m/s 735 mmHg 87%
05:00 +14°C° 0 mm 3 m/s 734 mmHg 88%
06:00 +16°C° 0 mm 3 m/s 734 mmHg 85%
07:00 +16°C° 0 mm 3 m/s 734 mmHg 83%
08:00 +17°C° 0 mm 4 m/s 733 mmHg 80%
09:00 +19°C° 0 mm 4 m/s 733 mmHg 74%
10:00 +21°C° 0 mm 5 m/s 733 mmHg 67%
11:00 +22°C° 0 mm 5 m/s 733 mmHg 60%
12:00 +23°C° 0.1 mm 5 m/s 732 mmHg 58%
13:00 +24°C° 0.1 mm 6 m/s 732 mmHg 56%
14:00 +24°C° 0.1 mm 6 m/s 731 mmHg 53%
15:00 +25°C° 0.3 mm 5 m/s 731 mmHg 57%
16:00 +23°C° 0.3 mm 4 m/s 730 mmHg 60%
17:00 +23°C° 0.3 mm 4 m/s 730 mmHg 63%
18:00 +22°C° 0.4 mm 4 m/s 730 mmHg 67%
19:00 +20°C° 0.4 mm 4 m/s 729 mmHg 72%
20:00 +19°C° 0.4 mm 4 m/s 729 mmHg 77%
21:00 +19°C° 0.1 mm 4 m/s 729 mmHg 78%
22:00 +17°C° 0.1 mm 5 m/s 729 mmHg 78%
23:00 +17°C° 0.1 mm 6 m/s 729 mmHg 79%

26 Septembrie, Sâmbătă

Timp Temperatura Precipitaţii Vânt Presiune Umiditate
00:00 +17°C° 0.1 mm 5 m/s 729 mmHg 81%
01:00 +18°C° 0.1 mm 4 m/s 728 mmHg 82%
02:00 +17°C° 0.1 mm 3 m/s 728 mmHg 84%
03:00 +17°C° 0 mm 3 m/s 728 mmHg 85%
04:00 +17°C° 0 mm 4 m/s 728 mmHg 86%
05:00 +15°C° 0 mm 4 m/s 727 mmHg 87%
06:00 +17°C° 0 mm 4 m/s 727 mmHg 85%
07:00 +16°C° 0 mm 5 m/s 727 mmHg 82%
08:00 +17°C° 0 mm 5 m/s 727 mmHg 80%
09:00 +19°C° 0 mm 6 m/s 726 mmHg 77%
10:00 +20°C° 0 mm 6 m/s 726 mmHg 75%
11:00 +21°C° 0 mm 7 m/s 726 mmHg 72%
12:00 +22°C° 0 mm 7 m/s 726 mmHg 68%
13:00 +23°C° 0 mm 8 m/s 726 mmHg 64%
14:00 +24°C° 0 mm 8 m/s 726 mmHg 60%
15:00 +23°C° 0.4 mm 7 m/s 725 mmHg 62%
16:00 +23°C° 0.4 mm 7 m/s 725 mmHg 63%
17:00 +22°C° 0.4 mm 6 m/s 725 mmHg 65%
18:00 +22°C° 0 mm 6 m/s 725 mmHg 61%
19:00 +22°C° 0 mm 7 m/s 725 mmHg 58%
20:00 +22°C° 0 mm 7 m/s 725 mmHg 55%
21:00 +20°C° 0.5 mm 7 m/s 725 mmHg 66%
22:00 +17°C° 0.5 mm 6 m/s 725 mmHg 76%
23:00 +16°C° 0.5 mm 5 m/s 725 mmHg 87%

27 Septembrie, Duminică

Timp Temperatura Precipitaţii Vânt Presiune Umiditate
00:00 +15°C° 1.2 mm 4 m/s 725 mmHg 89%
01:00 +14°C° 1.2 mm 4 m/s 725 mmHg 90%
02:00 +13°C° 1.2 mm 3 m/s 725 mmHg 92%
03:00 +13°C° 2.7 mm 3 m/s 725 mmHg 93%
04:00 +13°C° 2.7 mm 3 m/s 725 mmHg 94%
05:00 +12°C° 2.7 mm 3 m/s 725 mmHg 94%
06:00 +12°C° 2.4 mm 3 m/s 725 mmHg 94%
07:00 +12°C° 2.4 mm 3 m/s 725 mmHg 94%
08:00 +12°C° 2.4 mm 4 m/s 725 mmHg 94%
09:00 +12°C° 2.3 mm 4 m/s 725 mmHg 94%
10:00 +12°C° 2.3 mm 4 m/s 725 mmHg 94%
11:00 +12°C° 2.3 mm 4 m/s 725 mmHg 94%
12:00 +12°C° 0.7 mm 4 m/s 725 mmHg 93%
13:00 +12°C° 0.7 mm 5 m/s 726 mmHg 93%
14:00 +11°C° 0.7 mm 6 m/s 726 mmHg 92%
15:00 +10°C° 0.3 mm 6 m/s 726 mmHg 92%
16:00 +9°C° 0.3 mm 7 m/s 726 mmHg 91%
17:00 +8°C° 0.3 mm 7 m/s 727 mmHg 91%
18:00 +8°C° 0.2 mm 7 m/s 727 mmHg 91%
19:00 +6°C° 0.2 mm 7 m/s 728 mmHg 91%
20:00 +5°C° 0.2 mm 7 m/s 728 mmHg 90%
21:00 +5°C° 0 mm 6 m/s 729 mmHg 90%
22:00 +5°C° 0 mm 6 m/s 729 mmHg 89%
23:00 +5°C° 0 mm 6 m/s 730 mmHg 88%

28 Septembrie, Luni

Timp Temperatura Precipitaţii Vânt Presiune Umiditate
00:00 +5°C° 0 mm 6 m/s 730 mmHg 88%
01:00 +5°C° 0 mm 6 m/s 730 mmHg 88%
02:00 +6°C° 0 mm 5 m/s 730 mmHg 88%
03:00 +6°C° 0 mm 5 m/s 730 mmHg 88%
04:00 +6°C° 0 mm 5 m/s 730 mmHg 88%
05:00 +6°C° 0 mm 5 m/s 731 mmHg 88%
06:00 +6°C° 0.1 mm 5 m/s 731 mmHg 88%
07:00 +5°C° 0.1 mm 6 m/s 731 mmHg 88%
08:00 +7°C° 0.1 mm 6 m/s 731 mmHg 88%
09:00 +7°C° 0.1 mm 6 m/s 732 mmHg 86%
10:00 +7°C° 0.1 mm 6 m/s 732 mmHg 85%
11:00 +6°C° 0.1 mm 7 m/s 732 mmHg 83%
12:00 +7°C° 0.1 mm 6 m/s 733 mmHg 83%
13:00 +7°C° 0.1 mm 6 m/s 733 mmHg 83%
14:00 +7°C° 0.1 mm 6 m/s 733 mmHg 82%
15:00 +7°C° 0.1 mm 5 m/s 734 mmHg 83%
16:00 +7°C° 0.1 mm 5 m/s 734 mmHg 84%
17:00 +7°C° 0.1 mm 5 m/s 735 mmHg 85%
18:00 +7°C° 0.2 mm 5 m/s 735 mmHg 86%
19:00 +6°C° 0.2 mm 5 m/s 735 mmHg 87%
20:00 +6°C° 0.2 mm 5 m/s 736 mmHg 89%
21:00 +6°C° 0.1 mm 5 m/s 736 mmHg 88%
22:00 +6°C° 0.1 mm 5 m/s 736 mmHg 87%
23:00 +6°C° 0.1 mm 5 m/s 736 mmHg 87%
Arată mai mult